Date String (YYYY-MM-DD hh:mm:ss) UTC,Instrument flags,absolute air pressure of the measurement (hPa),sample flow rate (lpm),inlet stack bypass flow (lpm),air temperature of the measurement (°C),ambient temperature measured by the external sensor (°C),aerosol sample conditioner tube jacket temperature (°C),OPC LED temperature (°C),internal box temperature (°C),relative humidity of the measurement (%),span deviation,mass concentration of particles derived from Lorenz-Mie calculation of OPC scattering (μg/m³),mass concentration of particles derived from Lorenz-Mie calculation of OPC scattering (μg/m³),mass concentration of particles derived from Lorenz-Mie calculation of OPC scattering (μg/m³)
DateTimeUTC,F1_M11,P_M11,Q1_M11,Q2_M11,T1_M11,T2_M11,T3_M11,T4_M11,T5_M11,U1_M11,ZSPAN_M11,X2_M11,X0_M11,X1_M11
2023-08-07 13:00:00,SystemResetWarning,0835.1,5.01,000.00,029.7,028.2,000.0,038.3,031.1,29.4,-001.6,0006.39,0009.72,0005.96
2023-08-07 13:01:00,SystemResetWarning,0835.0,5.00,000.00,029.7,028.2,000.0,038.3,031.2,29.4,-001.7,0006.55,0009.65,0006.11
2023-08-07 13:02:00,SystemResetWarning,0835.0,5.00,000.00,029.7,028.2,000.0,038.3,031.2,29.4,-001.4,0006.69,0009.69,0006.24
2023-08-07 13:03:00,SystemResetWarning,0834.9,5.00,000.00,029.7,028.2,000.0,038.3,031.1,29.5,-000.9,0006.78,0009.83,0006.34
2023-08-07 13:04:00,SystemResetWarning,0834.5,5.00,000.00,029.7,028.2,000.0,038.3,031.1,29.5,-000.3,0006.93,0010.07,0006.49
2023-08-07 13:05:00,SystemResetWarning,0834.7,5.00,000.00,029.7,028.2,000.0,038.3,031.2,29.6,-000.5,0007.11,0010.34,0006.64
2023-08-07 13:06:00,SystemResetWarning,0835.0,4.99,000.00,029.7,028.2,000.0,038.3,031.2,29.5,-000.7,0007.24,0010.54,0006.76
2023-08-07 13:07:00,SystemResetWarning,0835.2,5.00,000.00,029.7,028.2,000.0,038.3,031.1,29.6,-000.8,0007.37,0011.18,0006.89
2023-08-07 13:08:00,SystemResetWarning,0835.2,5.00,000.00,029.7,028.2,000.0,038.3,031.1,29.7,-000.7,0007.53,0011.88,0007.02
2023-08-07 13:09:00,SystemResetWarning,0835.1,5.00,000.00,029.7,028.2,000.0,038.3,031.2,29.9,-000.7,0007.68,0012.01,0007.17
2023-08-07 13:10:00,SystemResetWarning,0835.1,5.01,000.00,029.7,028.2,000.0,038.3,031.2,30.1,-000.9,0007.78,0012.01,0007.30
2023-08-07 13:11:00,SystemResetWarning,0834.7,5.01,000.00,029.7,028.2,000.0,038.3,031.2,30.1,-000.7,0007.92,0012.22,0007.41
2023-08-07 13:12:00,SystemResetWarning,0834.6,5.01,000.00,029.7,028.2,000.0,038.3,031.2,30.0,-000.6,0008.02,0012.55,0007.52
2023-08-07 13:13:00,SystemResetWarning,0834.6,5.00,000.00,029.7,028.3,000.0,038.3,031.2,30.3,-000.8,0008.15,0012.83,0007.64
2023-08-07 13:14:00,SystemResetWarning,0834.7,5.00,000.00,029.7,028.3,000.0,038.3,031.2,30.2,-000.9,0008.30,0013.03,0007.80
2023-08-07 13:15:00,SystemResetWarning,0834.7,5.00,000.00,029.7,028.3,000.0,038.3,031.2,30.4,-001.1,0008.47,0013.12,0007.97
2023-08-07 13:16:00,SystemResetWarning,0835.2,5.00,000.00,029.7,028.3,000.0,038.3,031.2,30.4,-001.2,0008.59,0013.25,0008.10
2023-08-07 13:17:00,SystemResetWarning,0835.0,5.00,000.00,029.7,028.3,000.0,038.3,031.2,30.2,-001.0,0008.72,0013.45,0008.24
2023-08-07 13:18:00,SystemResetWarning,0834.7,5.00,000.00,029.7,028.3,000.0,038.3,031.2,30.0,-000.9,0008.78,0013.07,0008.31
2023-08-07 13:19:00,SystemResetWarning,0834.8,5.00,000.00,029.7,028.3,000.0,038.3,031.2,30.0,-001.0,0008.78,0012.58,0008.32
2023-08-07 13:20:00,SystemResetWarning,0835.1,5.00,000.00,029.7,028.3,000.0,038.3,031.2,30.1,-001.0,0008.80,0012.42,0008.37
2023-08-07 13:21:00,SystemResetWarning,0835.1,5.00,000.00,029.7,028.3,000.0,038.3,031.2,30.3,-001.0,0008.91,0012.56,0008.46
2023-08-07 13:22:00,SystemResetWarning,0835.1,5.01,000.00,029.7,028.3,000.0,038.3,031.2,30.5,-001.0,0008.94,0012.57,0008.52
2023-08-07 13:23:00,SystemResetWarning,0835.0,5.01,000.00,029.7,028.3,000.0,038.3,031.2,30.5,-000.9,0008.99,0012.48,0008.58
2023-08-07 13:24:00,SystemResetWarning,0835.1,5.00,000.00,029.7,028.3,000.0,038.3,031.2,30.5,-000.9,0009.08,0012.23,0008.67
2023-08-07 13:25:00,SystemResetWarning,0835.0,4.99,000.00,029.7,028.3,000.0,038.3,031.3,30.4,-001.1,0009.12,0012.23,0008.72
2023-08-07 13:26:00,SystemResetWarning,0835.1,5.00,000.00,029.7,028.3,000.0,038.3,031.3,30.6,-001.2,0009.11,0012.30,0008.70
2023-08-07 13:27:00,SystemResetWarning,0835.0,5.00,000.00,029.7,028.3,000.0,038.3,031.3,30.9,-001.3,0009.12,0012.32,0008.69
2023-08-07 13:28:00,SystemResetWarning,0835.0,5.00,000.00,029.7,028.3,000.0,038.3,031.3,30.5,-001.5,0009.17,0012.33,0008.72
2023-08-07 13:29:00,SystemResetWarning,0835.1,5.00,000.00,029.7,028.3,000.0,038.3,031.3,30.4,-001.8,0009.28,0012.88,0008.79
2023-08-07 13:30:00,SystemResetWarning,0835.0,5.00,000.00,029.7,028.3,000.0,038.3,031.2,30.2,-002.0,0009.39,0013.16,0008.88
2023-08-07 13:31:00,SystemResetWarning,0834.8,4.99,000.00,029.7,028.3,000.0,038.3,031.2,30.2,-001.8,0009.48,0013.32,0008.96
2023-08-07 13:32:00,SystemResetWarning,0834.6,5.00,000.00,029.7,028.3,000.0,038.3,031.2,30.6,-002.0,0009.51,0013.35,0009.00
2023-08-07 13:33:00,SystemResetWarning,0834.6,5.00,000.00,029.7,028.3,000.0,038.3,031.3,30.5,-001.9,0009.60,0013.48,0009.06
2023-08-07 13:34:00,SystemResetWarning,0834.8,5.00,000.00,029.7,028.3,000.0,038.3,031.3,30.6,-002.2,0009.76,0013.73,0009.17
2023-08-07 13:35:00,SystemResetWarning,0834.6,5.01,000.00,029.8,028.3,000.0,038.3,031.3,30.4,-002.2,0009.86,0013.87,0009.26
2023-08-07 13:36:00,SystemResetWarning,0834.7,5.01,000.00,029.7,028.3,000.0,038.4,031.3,30.3,-002.1,0009.97,0014.01,0009.36
2023-08-07 13:37:00,SystemResetWarning,0835.2,5.00,000.00,029.8,028.3,000.0,038.4,031.3,30.2,-002.0,0010.12,0014.16,0009.50
2023-08-07 13:38:00,SystemResetWarning,0834.8,5.00,000.00,029.8,028.3,000.0,038.4,031.3,30.4,-002.0,0010.26,0014.32,0009.66
2023-08-07 13:39:00,SystemResetWarning,0834.6,5.00,000.00,029.8,028.4,000.0,038.4,031.3,30.3,-001.8,0010.34,0014.38,0009.76
2023-08-07 13:40:00,SystemResetWarning,0834.6,5.00,000.00,029.8,028.4,000.0,038.4,031.3,30.4,-001.9,0010.42,0014.40,0009.86
2023-08-07 13:41:00,SystemResetWarning,0835.0,5.00,000.00,029.8,028.4,000.0,038.4,031.3,30.3,-002.0,0010.50,0014.60,0009.97
2023-08-07 13:42:00,SystemResetWarning,0834.8,5.00,000.00,029.8,028.4,000.0,038.4,031.3,30.4,-002.3,0010.55,0014.60,0010.03
2023-08-07 13:43:00,SystemResetWarning,0834.7,5.00,000.00,029.8,028.4,000.0,038.4,031.3,30.5,-002.4,0010.63,0014.74,0010.09
2023-08-07 13:44:00,SystemResetWarning,0834.6,5.00,000.00,029.8,028.4,000.0,038.4,031.3,30.6,-002.4,0010.68,0015.06,0010.14
2023-08-07 13:45:00,SystemResetWarning,0834.6,5.00,000.00,029.8,028.4,000.0,038.4,031.3,30.4,-002.4,0010.66,0015.29,0010.15
2023-08-07 13:46:00,SystemResetWarning,0834.7,5.00,000.00,029.8,028.4,000.0,038.4,031.3,30.5,-002.3,0010.66,0015.27,0010.16
2023-08-07 13:47:00,SystemResetWarning,0834.7,5.00,000.00,029.8,028.4,000.0,038.4,031.3,30.5,-002.5,0010.71,0015.41,0010.17
2023-08-07 13:48:00,SystemResetWarning,0834.7,5.00,000.00,029.8,028.4,000.0,038.4,031.3,30.1,-002.4,0010.75,0015.50,0010.17
2023-08-07 13:49:00,SystemResetWarning,0834.6,5.00,000.00,029.8,028.4,000.0,038.4,031.3,30.0,-002.5,0010.73,0015.59,0010.14
2023-08-07 13:50:00,SystemResetWarning,0834.7,5.00,000.00,029.8,028.5,000.0,038.4,031.4,29.8,-002.6,0010.71,0015.62,0010.14
2023-08-07 13:51:00,SystemResetWarning,0834.8,5.00,000.00,029.8,028.5,000.0,038.4,031.4,29.9,-002.5,0010.75,0015.60,0010.17
2023-08-07 13:52:00,SystemResetWarning,0834.7,5.00,000.00,029.8,028.5,000.0,038.4,031.4,29.8,-002.1,0010.78,0015.35,0010.19
2023-08-07 13:53:00,SystemResetWarning,0834.7,5.00,000.00,029.8,028.5,000.0,038.5,031.4,30.0,-001.9,0010.83,0015.35,0010.22
2023-08-07 13:54:00,SystemResetWarning,0834.6,5.00,000.00,029.8,028.5,000.0,038.5,031.4,30.4,-001.5,0010.86,0015.55,0010.26
2023-08-07 13:55:00,SystemResetWarning,0834.7,5.00,000.00,029.8,028.5,000.0,038.5,031.4,30.1,-001.4,0010.90,0015.37,0010.32
2023-08-07 13:56:00,SystemResetWarning,0834.8,5.00,000.00,029.9,028.5,000.0,038.5,031.4,30.0,-001.5,0010.94,0015.06,0010.38
2023-08-07 13:57:00,SystemResetWarning,0834.7,5.00,000.00,029.9,028.5,000.0,038.5,031.4,30.4,-001.4,0010.98,0015.08,0010.43
2023-08-07 13:58:00,SystemResetWarning,0834.6,5.00,000.00,029.9,028.5,000.0,038.5,031.4,30.4,-001.2,0011.01,0014.98,0010.51
2023-08-07 13:59:00,SystemResetWarning,0834.7,5.00,000.00,029.9,028.5,000.0,038.5,031.4,30.4,-001.2,0011.08,0015.27,0010.60
